SL-19 DEB, 23489

Orbit data source: Space-Track

SL-19 DEB, 23489 is space debris in LEO originally from a launch on Mon, 26 Dec 1994 UTC launched from the Tyuratam Missile And Space Complex (TTMTR). Debris objects in space refer to the collection of defunct objects orbiting the Earth. Examples of debris include non-operational satellites, rocket bodies, and fragments generated from explosions, collisions, or faulty payload assembly.

Loading next visibility...
Identifier
23489, 1994-085M
Orbit
LEO
Country
Flag of CISCIS
Related business
Manufacturer
Unknown
Mission
Spacecraft
Bus & Motor
Unknown
Mass
Unknown
Launch date (UTC)
1994-12-26 (31 years ago)
Launch vehicle
Unknown
Launch site
Tyuratam Missile And Space Complex (TTMTR)
Object type
Payload
Rocket body
Debris
Shape & HBR
Unknown
Radar Cross Section
Medium (>0.1 m² and <1 m²)

Expand to show TLE details & history
Last TLE update: 15 hours ago

TLE from 15 hours ago
0 SL-19 DEB
1 23489U 94085M   25260.94500519  .00000143  00000-0  51210-2 0  9999
2 23489  64.9285 104.6924 0185153 249.6316 217.9247 11.28997506265241
Epoch: 2025-09-17T22:40Z
TLE epoch observation values (Epoch: 2025-09-17T22:40:48.448Z)
Latitude
60.50106°
Longitude
-108.02565°
Altitude
2,148.33 km
Speed
6.793 km/s
True Right ascension
15h 17m 09s
True Declination
60° 22' 39"
Sunlit
Object was in daylight at epoch
Visualization orbit readout
Latitude
Unknown
Longitude
Unknown
Altitude
Unknown
Speed
Unknown
Apparent Right ascension
Unknown
Apparent Declination
Unknown
Sunlit
N/A
Visualization observer readout
Local Sidereal Time
06:13:19
Azimuth
Unknown
Elevation
Unknown
Doppler factor
Unknown
Orbital elements
Apogee altitude
2,169.479 km
Perigee altitude
1,858.71 km
Semi-major axis
8,392.232 km
Eccentricity
0.01852
Inclination
64.9285°
RAAN
104.6924°
Arg. of periapsis
249.6316°
True anomaly
216.64415°
Mean anomaly
217.9247°
Eccentric anomaly
217.2821°
Mean motion
2.8231 °/min
Orbital period
127.52 mins
BSTAR
0.005121
Loading maneuver chart data...
Computing Atmospheric mass density...
Loading historical data...
Loading historical data...
Loading historical data...
Loading historical data...
Loading historical data...
Loading historical data...
Loading historical data...

Documentation

Showing up to 5 results
|